Flag for Denmark Weather past 2 weeks in Roskilde, Denmark

39 °F

Light rain. Partly cloudy.

Feels Like: 29 °F
Forecast: 40 / 43 °F
Wind: 21 mph from South

Location: Koebenhavn / Roskilde

Current Time: Nov 29, 2015 at 4:37:39 AM

Latest Report: Nov 29, 2015 at 3:50 AM

Visibility: N/A

Pressure: 29.42 "Hg

Humidity: 93%

Dew point: 37 °F

Location of RoskildeLocation

Historic Weather in Roskilde — Graph


Roskilde temperature yesterday

Maximum temperature yesterday: 43 °F (at 2:20 PM)
Minimum temperature yesterday: 36 °F (at 7:20 PM)
Average temperature yesterday: 39 °F

Past Weeks' High & Low Weather Summary

High54 °F (Nov 16, 2:20 PM)100% (Nov 15, 3:20 AM)30.07 "Hg (Nov 15, 3:20 AM)
Low16 °F (Nov 23, 6:50 AM)70% (Nov 22, 5:50 PM)29.12 "Hg (Nov 18, 3:20 AM)
Average40 °F92%29.62 "Hg
* Reported Nov 14 3:20 AM — Nov 29 3:20 AM, Roskilde, Weather by CustomWeather, © 2015

Note: Actual official high and low records may vary slightly from our data, if they occured in-between our weather recording intervals... More about our weather records


Roskilde weather history for previous 24 hours

Time TempWeatherWind HumidityBarometerVisibility
3:20 AM
Sun, Nov 29
39 °FSprinkles. Mostly cloudy.23 mph93%29.45 "Hg3 mi
2:50 AM41 °FSprinkles. Partly cloudy.17 mph87%29.47 "HgN/A
2:20 AM41 °FLight rain. Mostly cloudy.17 mph87%29.47 "Hg6 mi
1:50 AM39 °FPassing clouds.18 mph93%29.50 "HgN/A
1:20 AM41 °FPassing clouds.20 mph87%29.53 "HgN/A
12:50 AM41 °FPassing clouds.17 mph81%29.53 "HgN/A
12:20 AM41 °FMostly cloudy.17 mph87%29.56 "HgN/A
11:50 PM
Sat, Nov 28
41 °FPassing clouds.17 mph87%29.59 "HgN/A
10:50 PM41 °FPartly cloudy.15 mph87%29.59 "HgN/A
10:20 PM39 °FPartly cloudy.13 mph93%29.62 "HgN/A
9:20 PM37 °FPassing clouds.10 mph93%29.62 "HgN/A
8:50 PM36 °FChilly.9 mph93%29.65 "HgN/A
8:20 PM36 °FChilly.10 mph93%29.65 "HgN/A
7:50 PM36 °FChilly.9 mph93%29.65 "HgN/A
7:20 PM36 °FChilly.8 mph93%29.65 "HgN/A
6:50 PM37 °FChilly.8 mph87%29.65 "HgN/A
6:20 PM37 °FChilly.8 mph87%29.65 "HgN/A
5:50 PM37 °FChilly.9 mph93%29.65 "HgN/A
5:20 PM39 °FChilly.9 mph87%29.62 "HgN/A
4:50 PM39 °FChilly.9 mph87%29.62 "HgN/A
4:20 PM39 °FChilly.10 mph87%29.59 "HgN/A
3:50 PM41 °FQuite cool.10 mph87%29.59 "HgN/A
3:20 PM41 °FQuite cool.12 mph93%29.59 "HgN/A
2:50 PM43 °FPassing clouds.13 mph87%29.56 "HgN/A
2:20 PM43 °FScattered clouds.13 mph87%29.56 "HgN/A
1:50 PM41 °FBroken clouds.13 mph93%29.56 "HgN/A
1:20 PM41 °FBroken clouds.12 mph93%29.53 "HgN/A
12:50 PM41 °FSprinkles. Partly sunny.10 mph93%29.53 "HgN/A
12:20 PM41 °FLight rain. Cloudy.9 mph93%29.53 "HgN/A
11:50 AM39 °FLight rain. Broken clouds.12 mph100%29.50 "HgN/A
11:20 AM39 °FLight rain. Partly sunny.10 mph93%29.50 "HgN/A
10:50 AM39 °FLight rain. Mostly cloudy.8 mph93%29.47 "Hg6 mi
10:20 AM39 °FLight rain. Broken clouds.12 mph93%29.47 "Hg6 mi
9:50 AM37 °FLight rain. Partly sunny.13 mph100%29.47 "Hg5 mi
9:20 AM39 °FSprinkles. Cloudy.14 mph93%29.47 "Hg4 mi
8:50 AM37 °FSprinkles. Fog.14 mph100%29.47 "Hg2 mi
8:20 AM37 °FLight rain. Fog.15 mph100%29.47 "Hg2 mi
7:20 AM39 °FSprinkles. Fog.17 mph93%29.47 "Hg2 mi
6:50 AM39 °FMostly cloudy.18 mph93%29.47 "HgN/A
6:20 AM39 °FPassing clouds.17 mph93%29.47 "HgN/A
5:50 AM39 °FPassing clouds.17 mph93%29.47 "HgN/A
5:20 AM39 °FMostly cloudy.17 mph93%29.47 "HgN/A
4:50 AM39 °FFog.18 mph100%29.50 "Hg3 mi
4:20 AM39 °FFog.17 mph93%29.50 "Hg2 mi
Weather by CustomWeather, © 2015

See weather overviewHow to use our weather pages